Simultaneous Nadir Overpasses (SNOs) Predictions

Prediction of SNOs between NOAA-20 and PACE Satellite Orbit:

Table of predicted SNOs for the next 14.0 days since TLE Epoch: 7/27/2024
Index Date (NOAA-20) Time (NOAA-20) Lat,Lon (NOAA-20) SZA (NOAA-20 ) Date (PACE) Time (PACE) Lat,Lon (PACE) SZA (PACE ) Distance(km) Time Diff (sec)
1 07/28/2024 09:07:49 79.93, 5.03 63.53 07/28/2024 09:08:11 79.94, 4.91 63.54 2.61 22
2 07/28/2024 09:58:28 -79.77, 173.92 116.77 07/28/2024 09:57:15 -79.77, 173.92 116.74 0.12 73
3 07/30/2024 13:34:13 79.88, -61.03 63.94 07/30/2024 13:34:02 79.88, -61.09 63.96 1.17 11
4 08/01/2024 17:09:58 -80.01, 63.72 115.28 08/01/2024 17:10:48 -80.01, 63.71 115.30 0.32 50
5 08/01/2024 18:00:36 79.79,-126.84 64.33 08/01/2024 17:59:52 79.80,-126.98 64.37 2.87 44
6 08/03/2024 21:36:22 -79.96, -2.37 114.81 08/03/2024 21:36:38 -79.95, -2.32 114.83 1.11 16
7 08/06/2024 01:14:20 80.84, 73.41 73.54 08/06/2024 01:15:32 81.71, 71.97 73.67 98.96 72
8 08/06/2024 02:02:45 -79.88, -68.21 114.38 08/06/2024 02:02:27 -79.88, -68.23 114.36 0.68 18
9 08/08/2024 05:38:29 79.98, 56.88 66.41 08/08/2024 05:39:11 79.98, 56.85 66.39 0.49 42



Historial Predications of SNOs between NOAA-20 and PACE
